7QFOS FWLK-FWKI

Flight info

Callsign 7QFOS
Flight time 1h 22m
Altitude 6500
Route DCT DVL DCT
Aircraft P28A/L-SFZ/C

Departure

Time 2026-04-12 12:33
Airport Likoma Island Airport (FWLK)

Arrival

Time 2026-04-12 13:56
Airport Kamuzu International Airport (FWKI)
Time Latitude Longitude Altitude Speed Heading
2026-04-12 12:30 -12.07545 34.73701 1594 ft 0 kts 302°
2026-04-12 12:32 -12.07537 34.73692 1592 ft 5 kts 320°
2026-04-12 12:32 -12.07493 34.73684 1594 ft 4 kts 324°
2026-04-12 12:32 -12.07480 34.73680 1594 ft 3 kts 51°
2026-04-12 12:32 -12.07675 34.73673 1594 ft 52 kts 186°
2026-04-12 12:33 -12.08128 34.73616 1687 ft 70 kts 186°
2026-04-12 12:33 -12.08610 34.73537 1853 ft 70 kts 189°
2026-04-12 12:33 -12.09083 34.73412 2040 ft 69 kts 198°
2026-04-12 12:33 -12.09536 34.73230 2234 ft 71 kts 203°
2026-04-12 12:34 -12.09967 34.72974 2511 ft 70 kts 208°
2026-04-12 12:34 -12.10398 34.72730 2713 ft 74 kts 206°
2026-04-12 12:34 -12.10835 34.72477 2922 ft 73 kts 208°
2026-04-12 12:34 -12.11256 34.72202 3142 ft 67 kts 207°
2026-04-12 12:35 -12.11657 34.71904 3321 ft 68 kts 209°
2026-04-12 12:35 -12.12061 34.71629 3495 ft 70 kts 206°
2026-04-12 12:35 -12.12483 34.71363 3663 ft 74 kts 206°
2026-04-12 12:35 -12.12927 34.71128 3836 ft 73 kts 194°
2026-04-12 12:36 -12.13392 34.70928 4043 ft 68 kts 193°
2026-04-12 12:36 -12.13854 34.70730 4185 ft 72 kts 197°
2026-04-12 12:36 -12.14304 34.70505 4333 ft 79 kts 215°
2026-04-12 12:36 -12.14702 34.70149 4557 ft 74 kts 215°
2026-04-12 12:37 -12.15115 34.69825 4712 ft 75 kts 209°
2026-04-12 12:37 -12.15570 34.69529 4848 ft 80 kts 205°
2026-04-12 12:37 -12.16036 34.69219 5005 ft 81 kts 211°
2026-04-12 12:37 -12.16506 34.68876 5169 ft 82 kts 210°
2026-04-12 12:38 -12.16992 34.68569 5334 ft 83 kts 206°
2026-04-12 12:38 -12.17488 34.68266 5501 ft 83 kts 207°
2026-04-12 12:38 -12.17962 34.67926 5688 ft 84 kts 214°
2026-04-12 12:38 -12.18427 34.67572 5887 ft 79 kts 203°
2026-04-12 12:39 -12.18947 34.67335 6037 ft 84 kts 195°
2026-04-12 12:39 -12.19475 34.67098 6223 ft 83 kts 200°
2026-04-12 12:39 -12.19990 34.66826 6402 ft 83 kts 205°
2026-04-12 12:39 -12.20498 34.66527 6546 ft 85 kts 203°
2026-04-12 12:40 -12.21002 34.66218 6715 ft 84 kts 207°
2026-04-12 12:40 -12.21507 34.65898 6767 ft 90 kts 207°
2026-04-12 12:40 -12.22062 34.65568 6771 ft 93 kts 206°
2026-04-12 12:40 -12.22610 34.65232 6816 ft 92 kts 206°
2026-04-12 12:41 -12.23187 34.64903 6776 ft 96 kts 205°
2026-04-12 12:41 -12.23775 34.64566 6734 ft 98 kts 203°
2026-04-12 12:41 -12.24386 34.64254 6691 ft 98 kts 202°
2026-04-12 12:41 -12.24988 34.63920 6640 ft 100 kts 205°
2026-04-12 12:42 -12.25603 34.63554 6590 ft 103 kts 207°
2026-04-12 12:42 -12.26879 34.62802 6479 ft 107 kts 205°
2026-04-12 12:42 -12.27522 34.62430 6454 ft 106 kts 206°
2026-04-12 12:43 -12.28162 34.62070 6409 ft 105 kts 204°
2026-04-12 12:43 -12.28804 34.61695 6402 ft 107 kts 206°
2026-04-12 12:43 -12.29445 34.61305 6407 ft 108 kts 208°
2026-04-12 12:43 -12.30086 34.60906 6404 ft 108 kts 207°
2026-04-12 12:44 -12.30723 34.60505 6407 ft 107 kts 207°
2026-04-12 12:44 -12.31367 34.60132 6404 ft 106 kts 205°
2026-04-12 12:44 -12.32014 34.59772 6406 ft 106 kts 204°
2026-04-12 12:44 -12.32664 34.59414 6406 ft 106 kts 204°
2026-04-12 12:45 -12.33311 34.59085 6406 ft 105 kts 201°
2026-04-12 12:45 -12.33973 34.58771 6409 ft 105 kts 201°
2026-04-12 12:45 -12.34637 34.58465 6413 ft 105 kts 200°
2026-04-12 12:45 -12.35305 34.58158 6416 ft 105 kts 200°
2026-04-12 12:46 -12.35980 34.57849 6424 ft 107 kts 200°
2026-04-12 12:46 -12.36662 34.57534 6423 ft 108 kts 199°
2026-04-12 12:46 -12.37351 34.57216 6419 ft 109 kts 200°
2026-04-12 12:46 -12.38051 34.56943 6400 ft 106 kts 187°
2026-04-12 12:47 -12.38759 34.56819 6406 ft 104 kts 184°
2026-04-12 12:47 -12.39473 34.56703 6421 ft 105 kts 185°
2026-04-12 12:47 -12.40197 34.56585 6424 ft 106 kts 185°
2026-04-12 12:47 -12.40926 34.56458 6415 ft 106 kts 185°
2026-04-12 12:48 -12.41653 34.56333 6405 ft 105 kts 185°
2026-04-12 12:48 -12.42368 34.56167 6403 ft 105 kts 195°
2026-04-12 12:48 -12.43030 34.55851 6406 ft 105 kts 205°
2026-04-12 12:48 -12.43661 34.55471 6406 ft 105 kts 207°
2026-04-12 12:49 -12.44272 34.55088 6413 ft 104 kts 208°
2026-04-12 12:49 -12.44891 34.54694 6417 ft 105 kts 208°
2026-04-12 12:49 -12.45508 34.54297 6417 ft 105 kts 208°
2026-04-12 12:49 -12.46124 34.53896 6424 ft 105 kts 209°
2026-04-12 12:50 -12.46747 34.53491 6418 ft 106 kts 209°
2026-04-12 12:50 -12.47363 34.53080 6416 ft 106 kts 210°
2026-04-12 12:50 -12.47984 34.52668 6408 ft 105 kts 209°
2026-04-12 12:50 -12.48597 34.52261 6412 ft 104 kts 210°
2026-04-12 12:51 -12.49194 34.51851 6412 ft 104 kts 211°
2026-04-12 12:51 -12.49790 34.51427 6415 ft 104 kts 212°
2026-04-12 12:51 -12.50382 34.50999 6413 ft 104 kts 212°
2026-04-12 12:51 -12.50969 34.50577 6419 ft 104 kts 211°
2026-04-12 12:52 -12.51561 34.50149 6418 ft 104 kts 212°
2026-04-12 12:52 -12.52159 34.49736 6420 ft 103 kts 208°
2026-04-12 12:52 -12.52776 34.49352 6422 ft 104 kts 207°
2026-04-12 12:52 -12.53402 34.48980 6421 ft 105 kts 207°
2026-04-12 12:53 -12.54032 34.48618 6420 ft 105 kts 206°
2026-04-12 12:53 -12.54659 34.48261 6424 ft 104 kts 206°
2026-04-12 12:53 -12.55299 34.47900 6422 ft 105 kts 206°
2026-04-12 12:53 -12.55940 34.47538 6420 ft 106 kts 205°
2026-04-12 12:54 -12.56580 34.47176 6437 ft 103 kts 206°
2026-04-12 12:54 -12.57195 34.46824 6469 ft 100 kts 206°
2026-04-12 12:54 -12.57804 34.46477 6489 ft 100 kts 206°
2026-04-12 12:54 -12.58413 34.46132 6496 ft 101 kts 206°
2026-04-12 12:55 -12.59032 34.45781 6504 ft 102 kts 206°
2026-04-12 12:55 -12.59661 34.45428 6506 ft 103 kts 206°
2026-04-12 12:55 -12.60295 34.45074 6512 ft 104 kts 205°
2026-04-12 12:55 -12.60940 34.44721 6510 ft 105 kts 205°
2026-04-12 12:56 -12.61590 34.44369 6511 ft 105 kts 205°
2026-04-12 12:56 -12.62237 34.44019 6510 ft 106 kts 205°
2026-04-12 12:56 -12.62888 34.43667 6510 ft 106 kts 205°
2026-04-12 12:56 -12.63533 34.43319 6508 ft 105 kts 205°
2026-04-12 12:57 -12.64182 34.42970 6504 ft 105 kts 205°
2026-04-12 12:57 -12.64831 34.42623 6507 ft 105 kts 204°
2026-04-12 12:57 -12.65478 34.42278 6506 ft 105 kts 205°
2026-04-12 12:57 -12.66124 34.41934 6513 ft 104 kts 205°
2026-04-12 12:58 -12.66759 34.41595 6510 ft 104 kts 204°
2026-04-12 12:58 -12.67408 34.41248 6519 ft 105 kts 205°
2026-04-12 12:58 -12.68058 34.40901 6513 ft 105 kts 205°
2026-04-12 12:58 -12.68707 34.40553 6512 ft 105 kts 205°
2026-04-12 12:59 -12.69354 34.40207 6507 ft 104 kts 205°
2026-04-12 12:59 -12.69987 34.39867 6511 ft 104 kts 205°
2026-04-12 12:59 -12.70620 34.39526 6508 ft 104 kts 205°
2026-04-12 12:59 -12.71259 34.39182 6514 ft 103 kts 205°
2026-04-12 13:00 -12.71897 34.38842 6513 ft 104 kts 205°
2026-04-12 13:00 -12.72539 34.38501 6518 ft 104 kts 204°
2026-04-12 13:00 -12.73188 34.38156 6521 ft 105 kts 205°
2026-04-12 13:00 -12.73837 34.37810 6542 ft 105 kts 205°
2026-04-12 13:01 -12.74475 34.37469 6601 ft 102 kts 205°
2026-04-12 13:01 -12.75096 34.37135 6665 ft 100 kts 204°
2026-04-12 13:01 -12.75704 34.36809 6735 ft 98 kts 205°
2026-04-12 13:01 -12.76292 34.36491 6800 ft 97 kts 205°
2026-04-12 13:02 -12.76884 34.36173 6891 ft 95 kts 204°
2026-04-12 13:02 -12.77458 34.35864 6986 ft 92 kts 204°
2026-04-12 13:02 -12.78023 34.35559 7090 ft 91 kts 204°
2026-04-12 13:02 -12.78584 34.35260 7187 ft 91 kts 204°
2026-04-12 13:03 -12.79142 34.34960 7278 ft 90 kts 204°
2026-04-12 13:03 -12.79695 34.34662 7368 ft 89 kts 204°
2026-04-12 13:03 -12.80240 34.34369 7468 ft 88 kts 205°
2026-04-12 13:03 -12.80782 34.34078 7565 ft 87 kts 205°
2026-04-12 13:04 -12.81321 34.33789 7657 ft 87 kts 204°
2026-04-12 13:04 -12.81850 34.33505 7753 ft 85 kts 204°
2026-04-12 13:04 -12.82375 34.33224 7844 ft 84 kts 204°
2026-04-12 13:04 -12.82893 34.32948 7948 ft 83 kts 204°
2026-04-12 13:05 -12.83403 34.32675 8047 ft 82 kts 204°
2026-04-12 13:05 -12.83898 34.32411 8136 ft 80 kts 204°
2026-04-12 13:05 -12.84387 34.32151 8230 ft 78 kts 204°
2026-04-12 13:05 -12.84859 34.31899 8326 ft 75 kts 204°
2026-04-12 13:06 -12.85308 34.31658 8418 ft 70 kts 203°
2026-04-12 13:06 -12.85738 34.31455 8471 ft 69 kts 191°
2026-04-12 13:06 -12.86216 34.31319 8537 ft 74 kts 184°
2026-04-12 13:06 -12.86741 34.31252 8609 ft 81 kts 180°
2026-04-12 13:07 -12.87357 34.31241 8625 ft 95 kts 176°
2026-04-12 13:07 -12.88055 34.31234 8640 ft 107 kts 180°
2026-04-12 13:07 -12.88817 34.31149 8607 ft 113 kts 186°
2026-04-12 13:07 -12.89584 34.30992 8571 ft 113 kts 190°
2026-04-12 13:08 -12.90338 34.30792 8528 ft 114 kts 195°
2026-04-12 13:08 -12.91059 34.30484 8544 ft 110 kts 202°
2026-04-12 13:08 -12.91742 34.30131 8533 ft 110 kts 206°
2026-04-12 13:08 -12.92407 34.29750 8560 ft 110 kts 208°
2026-04-12 13:09 -12.93085 34.29349 8568 ft 114 kts 209°
2026-04-12 13:09 -12.93770 34.28926 8550 ft 116 kts 211°
2026-04-12 13:09 -12.94452 34.28479 8533 ft 115 kts 212°
2026-04-12 13:09 -12.95112 34.28038 8527 ft 114 kts 212°
2026-04-12 13:10 -12.95773 34.27592 8525 ft 113 kts 212°
2026-04-12 13:10 -12.96430 34.27151 8521 ft 111 kts 212°
2026-04-12 13:10 -12.97076 34.26716 8535 ft 111 kts 212°
2026-04-12 13:10 -12.97727 34.26282 8533 ft 112 kts 211°
2026-04-12 13:11 -12.98373 34.25851 8520 ft 110 kts 212°
2026-04-12 13:11 -12.99004 34.25429 8521 ft 107 kts 211°
2026-04-12 13:11 -12.99621 34.25014 8538 ft 105 kts 211°
2026-04-12 13:11 -13.00233 34.24600 8546 ft 106 kts 212°
2026-04-12 13:12 -13.00852 34.24184 8543 ft 107 kts 211°
2026-04-12 13:12 -13.01476 34.23766 8539 ft 107 kts 211°
2026-04-12 13:12 -13.02096 34.23346 8535 ft 107 kts 211°
2026-04-12 13:12 -13.02738 34.22964 8545 ft 107 kts 206°
2026-04-12 13:13 -13.03392 34.22625 8546 ft 107 kts 204°
2026-04-12 13:13 -13.04061 34.22285 8550 ft 108 kts 204°
2026-04-12 13:13 -13.04736 34.21947 8543 ft 108 kts 204°
2026-04-12 13:13 -13.05417 34.21616 8534 ft 107 kts 202°
2026-04-12 13:14 -13.06092 34.21283 8541 ft 108 kts 204°
2026-04-12 13:14 -13.06760 34.20941 8543 ft 108 kts 203°
2026-04-12 13:14 -13.07209 34.20717 8557 ft 109 kts 204°
2026-04-12 13:14 -13.07891 34.20377 8540 ft 108 kts 203°
2026-04-12 13:15 -13.08570 34.20038 8564 ft 109 kts 203°
2026-04-12 13:15 -13.09471 34.19572 8535 ft 108 kts 204°
2026-04-12 13:15 -13.10142 34.19213 8558 ft 109 kts 206°
2026-04-12 13:15 -13.10602 34.18966 8561 ft 111 kts 205°
2026-04-12 13:16 -13.11286 34.18595 8544 ft 110 kts 205°
2026-04-12 13:16 -13.11953 34.18233 8532 ft 108 kts 206°
2026-04-12 13:16 -13.12603 34.17869 8534 ft 106 kts 206°
2026-04-12 13:16 -13.13240 34.17504 8544 ft 105 kts 206°
2026-04-12 13:17 -13.13872 34.17129 8550 ft 105 kts 207°
2026-04-12 13:17 -13.14502 34.16758 8561 ft 105 kts 207°
2026-04-12 13:17 -13.15142 34.16380 8557 ft 107 kts 207°
2026-04-12 13:17 -13.15784 34.15999 8555 ft 106 kts 207°
2026-04-12 13:18 -13.16424 34.15621 8560 ft 106 kts 207°
2026-04-12 13:18 -13.17064 34.15245 8556 ft 106 kts 208°
2026-04-12 13:18 -13.18344 34.14492 8556 ft 106 kts 207°
2026-04-12 13:19 -13.18983 34.14112 8565 ft 106 kts 207°
2026-04-12 13:19 -13.19617 34.13734 8552 ft 106 kts 207°
2026-04-12 13:19 -13.20249 34.13352 8548 ft 105 kts 208°
2026-04-12 13:19 -13.20874 34.12978 8564 ft 104 kts 207°
2026-04-12 13:20 -13.21504 34.12598 8566 ft 105 kts 207°
2026-04-12 13:20 -13.22139 34.12219 8570 ft 106 kts 207°
2026-04-12 13:20 -13.22784 34.11834 8573 ft 108 kts 207°
2026-04-12 13:20 -13.23435 34.11451 8566 ft 107 kts 207°
2026-04-12 13:21 -13.24083 34.11074 8555 ft 106 kts 206°
2026-04-12 13:21 -13.24723 34.10705 8568 ft 105 kts 206°
2026-04-12 13:21 -13.25364 34.10335 8560 ft 105 kts 206°
2026-04-12 13:21 -13.25997 34.09967 8558 ft 104 kts 206°
2026-04-12 13:22 -13.26623 34.09604 8567 ft 103 kts 206°
2026-04-12 13:22 -13.27250 34.09238 8572 ft 103 kts 207°
2026-04-12 13:22 -13.27870 34.08876 8586 ft 105 kts 207°
2026-04-12 13:22 -13.28512 34.08502 8584 ft 107 kts 206°
2026-04-12 13:23 -13.29160 34.08130 8571 ft 106 kts 205°
2026-04-12 13:23 -13.29806 34.07762 8576 ft 107 kts 206°
2026-04-12 13:23 -13.30453 34.07390 8580 ft 106 kts 206°
2026-04-12 13:23 -13.31101 34.07012 8586 ft 108 kts 206°
2026-04-12 13:24 -13.31757 34.06629 8585 ft 109 kts 207°
2026-04-12 13:24 -13.32418 34.06243 8586 ft 110 kts 206°
2026-04-12 13:24 -13.33080 34.05859 8567 ft 108 kts 206°
2026-04-12 13:24 -13.33728 34.05484 8588 ft 109 kts 206°
2026-04-12 13:25 -13.34395 34.05099 8591 ft 110 kts 206°
2026-04-12 13:25 -13.35068 34.04712 8583 ft 111 kts 206°
2026-04-12 13:25 -13.35739 34.04326 8576 ft 110 kts 206°
2026-04-12 13:25 -13.36400 34.03943 8571 ft 108 kts 206°
2026-04-12 13:26 -13.37047 34.03567 8576 ft 106 kts 206°
2026-04-12 13:26 -13.37689 34.03196 8578 ft 105 kts 206°
2026-04-12 13:26 -13.38319 34.02826 8581 ft 104 kts 206°
2026-04-12 13:26 -13.38947 34.02458 8601 ft 106 kts 206°
2026-04-12 13:27 -13.39597 34.02077 8601 ft 109 kts 206°
2026-04-12 13:27 -13.40259 34.01687 8602 ft 110 kts 206°
2026-04-12 13:27 -13.40922 34.01297 8583 ft 109 kts 206°
2026-04-12 13:27 -13.41581 34.00914 8589 ft 108 kts 207°
2026-04-12 13:28 -13.42015 34.00664 8584 ft 108 kts 206°
2026-04-12 13:28 -13.42881 34.00162 8581 ft 105 kts 206°
2026-04-12 13:28 -13.43518 33.99791 8583 ft 104 kts 206°
2026-04-12 13:28 -13.44147 33.99424 8587 ft 103 kts 205°
2026-04-12 13:29 -13.44759 33.99056 8587 ft 103 kts 207°
2026-04-12 13:29 -13.45386 33.98682 8599 ft 103 kts 207°
2026-04-12 13:29 -13.46001 33.98311 8603 ft 104 kts 206°
2026-04-12 13:29 -13.46628 33.97933 8605 ft 105 kts 206°
2026-04-12 13:30 -13.47257 33.97555 8606 ft 105 kts 206°
2026-04-12 13:30 -13.47889 33.97180 8593 ft 104 kts 207°
2026-04-12 13:30 -13.48510 33.96816 8593 ft 102 kts 206°
2026-04-12 13:30 -13.49123 33.96453 8592 ft 101 kts 206°
2026-04-12 13:31 -13.49732 33.96094 8605 ft 101 kts 206°
2026-04-12 13:31 -13.50109 33.95871 8609 ft 102 kts 206°
2026-04-12 13:32 -13.50568 33.95597 8603 ft 103 kts 206°
2026-04-12 13:32 -13.51177 33.95223 8594 ft 101 kts 207°
2026-04-12 13:32 -13.51718 33.94893 8611 ft 101 kts 206°
2026-04-12 13:34 -13.52087 33.94668 8613 ft 103 kts 207°
2026-04-12 13:34 -13.52705 33.94292 8604 ft 103 kts 207°
2026-04-12 13:34 -13.53324 33.93929 8594 ft 102 kts 207°
2026-04-12 13:34 -13.53922 33.93583 8584 ft 98 kts 205°
2026-04-12 13:35 -13.54516 33.93235 8600 ft 98 kts 206°
2026-04-12 13:35 -13.55113 33.92885 8598 ft 99 kts 206°
2026-04-12 13:35 -13.55713 33.92533 8603 ft 99 kts 206°
2026-04-12 13:35 -13.56307 33.92187 8614 ft 99 kts 205°
2026-04-12 13:36 -13.56903 33.91835 8567 ft 99 kts 207°
2026-04-12 13:36 -13.57493 33.91451 8475 ft 98 kts 208°
2026-04-12 13:36 -13.58060 33.91054 8347 ft 100 kts 212°
2026-04-12 13:36 -13.58652 33.90662 8206 ft 101 kts 207°
2026-04-12 13:37 -13.59256 33.90304 8127 ft 99 kts 205°
2026-04-12 13:37 -13.59857 33.89988 8046 ft 96 kts 203°
2026-04-12 13:37 -13.60467 33.89716 7943 ft 96 kts 195°
2026-04-12 13:37 -13.61097 33.89598 7859 ft 91 kts 176°
2026-04-12 13:38 -13.61743 33.89659 7754 ft 92 kts 178°
2026-04-12 13:38 -13.62368 33.89553 7657 ft 92 kts 189°
2026-04-12 13:38 -13.62989 33.89360 7531 ft 92 kts 194°
2026-04-12 13:38 -13.63595 33.89157 7398 ft 94 kts 194°
2026-04-12 13:39 -13.64202 33.88918 7320 ft 93 kts 199°
2026-04-12 13:39 -13.64804 33.88614 7238 ft 97 kts 200°
2026-04-12 13:39 -13.65403 33.88325 7203 ft 94 kts 199°
2026-04-12 13:39 -13.65995 33.88030 7184 ft 94 kts 201°
2026-04-12 13:40 -13.66599 33.87738 7125 ft 97 kts 199°
2026-04-12 13:40 -13.67225 33.87492 7052 ft 98 kts 195°
2026-04-12 13:40 -13.67827 33.87216 7056 ft 93 kts 200°
2026-04-12 13:40 -13.68409 33.86916 7027 ft 92 kts 202°
2026-04-12 13:41 -13.68995 33.86642 6971 ft 95 kts 197°
2026-04-12 13:41 -13.69583 33.86424 7008 ft 93 kts 194°
2026-04-12 13:41 -13.70183 33.86156 7018 ft 95 kts 199°
2026-04-12 13:41 -13.70774 33.85772 6929 ft 101 kts 211°
2026-04-12 13:42 -13.71290 33.85283 6830 ft 102 kts 229°
2026-04-12 13:42 -13.71711 33.84672 6715 ft 108 kts 233°
2026-04-12 13:42 -13.72086 33.84017 6629 ft 105 kts 239°
2026-04-12 13:42 -13.72419 33.83373 6547 ft 102 kts 238°
2026-04-12 13:43 -13.72748 33.82708 6428 ft 104 kts 243°
2026-04-12 13:43 -13.73025 33.82022 6317 ft 103 kts 242°
2026-04-12 13:43 -13.73353 33.81350 6182 ft 107 kts 248°
2026-04-12 13:43 -13.73533 33.80607 6091 ft 109 kts 257°
2026-04-12 13:44 -13.73677 33.79847 5993 ft 109 kts 257°
2026-04-12 13:44 -13.73883 33.79070 5816 ft 114 kts 250°
2026-04-12 13:44 -13.74131 33.78338 5766 ft 107 kts 247°
2026-04-12 13:44 -13.74446 33.77629 5579 ft 109 kts 239°
2026-04-12 13:45 -13.74906 33.77032 5460 ft 106 kts 216°
2026-04-12 13:45 -13.75521 33.76652 5343 ft 101 kts 210°
2026-04-12 13:45 -13.75988 33.76109 5061 ft 100 kts 242°
2026-04-12 13:45 -13.76360 33.75531 4806 ft 95 kts 234°
2026-04-12 13:46 -13.76788 33.75045 4588 ft 90 kts 220°
2026-04-12 13:46 -13.77322 33.74941 4378 ft 83 kts 128°
2026-04-12 13:46 -13.77150 33.75445 4375 ft 86 kts 46°
2026-04-12 13:46 -13.76714 33.75862 4423 ft 84 kts 48°
2026-04-12 13:47 -13.76303 33.76251 4426 ft 80 kts 49°
2026-04-12 13:47 -13.75813 33.76531 4387 ft 85 kts 15°
2026-04-12 13:47 -13.75348 33.76201 4380 ft 91 kts 287°
2026-04-12 13:47 -13.75597 33.75668 4300 ft 90 kts 204°
2026-04-12 13:48 -13.76194 33.75633 4355 ft 87 kts 175°
2026-04-12 13:48 -13.76793 33.75606 4433 ft 87 kts 156°
2026-04-12 13:48 -13.77231 33.75999 4361 ft 78 kts 125°
2026-04-12 13:48 -13.77562 33.76413 4204 ft 72 kts 127°
2026-04-12 13:49 -13.77874 33.76798 4086 ft 68 kts 127°
2026-04-12 13:49 -13.78150 33.77135 4024 ft 50 kts 128°
2026-04-12 13:49 -13.78410 33.77457 4045 ft 69 kts 126°
2026-04-12 13:49 -13.78735 33.77833 4151 ft 73 kts 129°
2026-04-12 13:50 -13.79067 33.78253 4250 ft 77 kts 124°
2026-04-12 13:50 -13.79407 33.78687 4428 ft 78 kts 124°
2026-04-12 13:50 -13.79755 33.79116 4688 ft 78 kts 123°
2026-04-12 13:50 -13.80070 33.79543 4980 ft 71 kts 123°
2026-04-12 13:51 -13.80445 33.79906 5117 ft 80 kts 128°
2026-04-12 13:51 -13.80506 33.80401 5150 ft 81 kts 46°
2026-04-12 13:51 -13.80282 33.80567 5196 ft 76 kts 39°
2026-04-12 13:51 -13.79805 33.80867 5206 ft 84 kts 38°
2026-04-12 13:52 -13.79257 33.81140 5171 ft 93 kts
2026-04-12 13:52 -13.78742 33.80735 5229 ft 99 kts 309°
2026-04-12 13:52 -13.78366 33.80163 5204 ft 96 kts 308°
2026-04-12 13:52 -13.77961 33.79595 5164 ft 102 kts 312°
2026-04-12 13:53 -13.77531 33.79006 5168 ft 105 kts 310°
2026-04-12 13:53 -13.77083 33.78409 5193 ft 103 kts 309°
2026-04-12 13:53 -13.76670 33.77817 5157 ft 100 kts 307°
2026-04-12 13:53 -13.76269 33.77198 5049 ft 106 kts 307°
2026-04-12 13:54 -13.75860 33.76557 4910 ft 105 kts 306°
2026-04-12 13:54 -13.75665 33.75878 4573 ft 95 kts 263°
2026-04-12 13:54 -13.75939 33.75302 4443 ft 91 kts 225°
2026-04-12 13:54 -13.76439 33.74946 4398 ft 92 kts 162°
2026-04-12 13:55 -13.76814 33.75459 4368 ft 93 kts 131°
2026-04-12 13:55 -13.77211 33.75973 4296 ft 86 kts 128°
2026-04-12 13:55 -13.77546 33.76391 4207 ft 71 kts 125°
2026-04-12 13:55 -13.77851 33.76770 4098 ft 67 kts 127°
2026-04-12 13:56 -13.78127 33.77104 4026 ft 50 kts 125°
2026-04-12 13:56 -13.78309 33.77328 4023 ft 35 kts 129°
2026-04-12 13:56 -13.78446 33.77504 4024 ft 28 kts 117°
2026-04-12 13:56 -13.78559 33.77637 4025 ft 22 kts 133°
2026-04-12 13:57 -13.78651 33.77749 4025 ft 19 kts 132°
2026-04-12 13:57 -13.78741 33.77836 4025 ft 15 kts 123°
2026-04-12 13:57 -13.78792 33.77922 4024 ft 13 kts 141°
2026-04-12 13:57 -13.78851 33.77993 4023 ft 15 kts 127°
2026-04-12 13:58 -13.78932 33.78097 4022 ft 16 kts 123°
2026-04-12 13:58 -13.78911 33.78176 4023 ft 11 kts 45°
2026-04-12 13:58 -13.78856 33.78227 4024 ft 13 kts 43°
2026-04-12 13:58 -13.78772 33.78300 4024 ft 18 kts 47°
2026-04-12 13:59 -13.78750 33.78378 4024 ft 10 kts 113°
2026-04-12 13:59 -13.78777 33.78418 4024 ft 1 kts 232°
2026-04-12 13:59 -13.78776 33.78414 4024 ft 0 kts 312°